Weather History for KGDV - July, 2012

Change the Weather History Date:

Sunday, July 1, 2012

  Actual Average Record
Temperature  
Mean Temperature 80 °F -  
Max Temperature 100 °F 78 °F 100 °F (2012)
Min Temperature 59 °F 53 °F 48 °F (1997)
Cooling Degree Days 14    
Growing Degree Days 30 (Base 50)    
Moisture  
Dew Point 50 °F    
Average Humidity 39    
Maximum Humidity 68    
Minimum Humidity 19    
Precipitation  
Precipitation 0.00 in - - ()
Sea Level Pressure  
Sea Level Pressure 29.80 in    
Wind  
Wind Speed 11 mph (East)    
Max Wind Speed 24 mph    
Max Gust Speed 34 mph    
Visibility 10 miles    
Events      
Averages and records for this station are not official NWS values.
T = Trace of Precipitation, MM = Missing Value Source: NWS Daily Summary

Daily Weather History Graph

Daily Weather History Graph

Search for Another Location

Airport or City:

Trip Planner

Search our weather history database for the weather conditions in past years. The results will help you decide how hot, cold, wet, or windy it might be!

Date:

Astronomy

Jul. 01, 2012 Rise Set
Actual Time 5:07 AM MDT 8:58 PM MDT
Civil Twilight 4:28 AM MDT 9:37 PM MDT
Nautical Twilight 3:34 AM MDT 10:31 PM MDT
Astronomical Twilight 2:13 AM MDT 11:51 PM MDT
Moon 7:02 PM MDT (7/1) 3:00 AM MDT (7/1)
Length of Visible Light 17h 09m
Length of Day
15h 50m
Waxing Gibbous, 94% of the Moon is Illuminated
Jul 1
Waxing Gibbous
Jul 3
Full
Jul 10
Last Quarter
Jul 18
New
Jul 26
First Quarter

Hourly Weather History & Observations

Time (MDT) Temp. Heat Index Dew Point Humidity Pressure Visibility Wind Dir Wind Speed Gust Speed Precip Events Conditions
12:15 AM 66.2 °F - 48.2 °F 52% 29.92 in 10.0 mi NNE 6.9 mph - N/A   Clear
12:35 AM 66.2 °F - 48.2 °F 52% 29.92 in 10.0 mi NNE 9.2 mph - N/A   Clear
12:55 AM 66.2 °F - 48.2 °F 52% 29.91 in 10.0 mi NNE 9.2 mph - N/A   Clear
1:15 AM 66.2 °F - 48.2 °F 52% 29.91 in 10.0 mi NE 6.9 mph - N/A   Clear
1:35 AM 66.2 °F - 48.2 °F 52% 29.91 in 10.0 mi ENE 8.1 mph - N/A   Clear
1:55 AM 66.2 °F - 48.2 °F 52% 29.92 in 10.0 mi ENE 5.8 mph - N/A   Clear
2:15 AM 64.4 °F - 48.2 °F 56% 29.92 in 10.0 mi NE 4.6 mph - N/A   Clear
2:35 AM 64.4 °F - 48.2 °F 56% 29.91 in 10.0 mi NE 4.6 mph - N/A   Clear
2:55 AM 64.4 °F - 48.2 °F 56% 29.91 in 10.0 mi NE 5.8 mph - N/A   Clear
3:15 AM 62.6 °F - 48.2 °F 59% 29.91 in 10.0 mi NE 4.6 mph - N/A   Clear
3:35 AM 62.6 °F - 48.2 °F 59% 29.91 in 10.0 mi NNE 3.5 mph - N/A   Clear
3:55 AM 60.8 °F - 48.2 °F 63% 29.90 in 10.0 mi NNE 5.8 mph - N/A   Clear
4:15 AM 60.8 °F - 48.2 °F 63% 29.90 in 10.0 mi NNE 6.9 mph - N/A   Clear
4:35 AM 59.0 °F - 48.2 °F 67% 29.89 in 10.0 mi North 6.9 mph - N/A   Clear
4:55 AM 59.0 °F - 48.2 °F 67% 29.90 in 10.0 mi North 4.6 mph - N/A   Clear
5:15 AM 60.8 °F - 48.2 °F 63% 29.90 in 10.0 mi NE 5.8 mph - N/A   Clear
5:55 AM 60.8 °F - 48.2 °F 63% 29.90 in 10.0 mi Calm Calm - N/A   Clear
6:15 AM 62.6 °F - 50.0 °F 63% 29.91 in 10.0 mi NNE 3.5 mph - N/A   Clear
6:35 AM 64.4 °F - 51.8 °F 64% 29.90 in 10.0 mi NE 4.6 mph - N/A   Clear
6:55 AM 64.4 °F - 53.6 °F 68% 29.90 in 10.0 mi NE 4.6 mph - N/A   Clear
7:15 AM 66.2 °F - 53.6 °F 64% 29.90 in 10.0 mi NE 5.8 mph - N/A   Clear
7:35 AM 68.0 °F - 53.6 °F 60% 29.90 in 10.0 mi NE 5.8 mph - N/A   Clear
7:55 AM 69.8 °F - 55.4 °F 60% 29.90 in 10.0 mi ENE 4.6 mph - N/A   Clear
8:15 AM 71.6 °F - 55.4 °F 57% 29.89 in 10.0 mi East 8.1 mph - N/A   Clear
8:35 AM 73.4 °F - 55.4 °F 53% 29.88 in 10.0 mi East 6.9 mph - N/A   Clear
8:55 AM 75.2 °F - 55.4 °F 50% 29.88 in 10.0 mi East 8.1 mph - N/A   Clear
9:15 AM 78.8 °F - 57.2 °F 47% 29.87 in 10.0 mi East 8.1 mph - N/A   Clear
9:35 AM 82.4 °F 82.0 °F 57.2 °F 42% 29.86 in 10.0 mi ENE 10.4 mph - N/A   Clear
10:15 AM 87.8 °F 86.5 °F 57.2 °F 35% 29.84 in 10.0 mi East 12.7 mph - N/A   Clear
10:35 AM 89.6 °F 87.7 °F 55.4 °F 31% 29.83 in 10.0 mi ESE 13.8 mph - N/A   Clear
10:55 AM 91.4 °F 89.1 °F 53.6 °F 28% 29.82 in 10.0 mi SE 15.0 mph 23.0 mph N/A   Clear
11:15 AM 91.4 °F 89.4 °F 55.4 °F 29% 29.82 in 10.0 mi ESE 15.0 mph 24.2 mph N/A   Clear
11:35 AM 93.2 °F 91.3 °F 55.4 °F 28% 29.82 in 10.0 mi SE 18.4 mph 24.2 mph N/A   Clear
12:15 PM 93.2 °F 91.3 °F 55.4 °F 28% 29.80 in 10.0 mi ESE 20.7 mph 25.3 mph N/A   Clear
12:35 PM 95.0 °F 93.0 °F 55.4 °F 26% 29.79 in 10.0 mi ESE 19.6 mph 25.3 mph N/A   Clear
12:55 PM 95.0 °F 92.7 °F 53.6 °F 25% 29.78 in 10.0 mi ESE 23.0 mph 26.5 mph N/A   Clear
1:15 PM 96.8 °F 94.4 °F 53.6 °F 23% 29.77 in 10.0 mi ESE 17.3 mph 27.6 mph N/A   Clear
1:35 PM 96.8 °F 94.4 °F 53.6 °F 23% 29.75 in 10.0 mi SE 24.2 mph 32.2 mph N/A   Clear
1:55 PM 98.6 °F - 51.8 °F 21% 29.75 in 10.0 mi ESE 18.4 mph 29.9 mph N/A   Clear
2:15 PM 98.6 °F - 51.8 °F 21% 29.74 in 10.0 mi ESE 18.4 mph 26.5 mph N/A   Clear
2:35 PM 98.6 °F - 51.8 °F 21% 29.74 in 10.0 mi SE 19.6 mph 27.6 mph N/A   Clear
2:55 PM 98.6 °F - 51.8 °F 21% 29.73 in 10.0 mi SE 18.4 mph 28.8 mph N/A   Clear
3:15 PM 98.6 °F 96.4 °F 53.6 °F 22% 29.72 in 10.0 mi SE 15.0 mph 24.2 mph N/A   Clear
3:35 PM 98.6 °F 96.4 °F 53.6 °F 22% 29.72 in 10.0 mi SE 20.7 mph 26.5 mph N/A   Clear
3:55 PM 100.4 °F 98.4 °F 53.6 °F 21% 29.71 in 10.0 mi SE 21.9 mph 34.5 mph N/A   Clear
4:15 PM 98.6 °F - 51.8 °F 21% 29.70 in 10.0 mi ESE 18.4 mph 27.6 mph N/A   Clear
4:35 PM 98.6 °F - 51.8 °F 21% 29.69 in 10.0 mi SE 24.2 mph 28.8 mph N/A   Clear
5:15 PM 96.8 °F - 50.0 °F 20% 29.68 in 10.0 mi ESE 23.0 mph 28.8 mph N/A   Clear
5:35 PM 96.8 °F - 50.0 °F 20% 29.67 in 10.0 mi ESE 23.0 mph 33.4 mph N/A   Clear
5:55 PM 93.2 °F - 48.2 °F 21% 29.68 in 10.0 mi ESE 23.0 mph 31.1 mph N/A   Clear
6:15 PM 93.2 °F - 46.4 °F 20% 29.68 in 10.0 mi SE 16.1 mph 24.2 mph N/A   Clear
6:35 PM 93.2 °F - 44.6 °F 19% 29.66 in 10.0 mi SSE 16.1 mph - N/A   Clear
6:55 PM 93.2 °F - 44.6 °F 19% 29.67 in 10.0 mi SE 17.3 mph 29.9 mph N/A   Clear
7:15 PM 91.4 °F - 44.6 °F 20% 29.67 in 10.0 mi SE 17.3 mph 24.2 mph N/A   Clear
7:35 PM 87.8 °F - 42.8 °F 21% 29.69 in 10.0 mi SE 15.0 mph 25.3 mph N/A   Clear
7:56 PM 87.8 °F - 44.6 °F 22% 29.71 in 10.0 mi ESE 17.3 mph 25.3 mph N/A   Clear
8:15 PM 84.2 °F - 46.4 °F 27% 29.72 in 10.0 mi ESE 18.4 mph 29.9 mph N/A   Clear
8:35 PM 84.2 °F - 46.4 °F 27% 29.72 in 10.0 mi ESE 12.7 mph - N/A   Clear
8:55 PM 84.2 °F - 46.4 °F 27% 29.72 in 10.0 mi ESE 15.0 mph 18.4 mph N/A   Clear
9:15 PM 80.6 °F - 48.2 °F 32% 29.73 in 10.0 mi ESE 16.1 mph - N/A   Clear
9:35 PM 80.6 °F - 48.2 °F 32% 29.73 in 10.0 mi ESE 18.4 mph 25.3 mph N/A   Clear
9:55 PM 80.6 °F - 48.2 °F 32% 29.73 in 10.0 mi ESE 16.1 mph 24.2 mph N/A   Clear
10:15 PM 80.6 °F - 48.2 °F 32% 29.73 in 10.0 mi ESE 15.0 mph 26.5 mph N/A   Clear
10:35 PM 80.6 °F - 48.2 °F 32% 29.72 in 10.0 mi SE 13.8 mph 18.4 mph N/A   Clear
10:55 PM 82.4 °F - 48.2 °F 30% 29.71 in 10.0 mi ESE 17.3 mph 23.0 mph N/A   Clear
11:15 PM 82.4 °F - 48.2 °F 30% 29.71 in 10.0 mi SE 15.0 mph 20.7 mph N/A   Clear
11:35 PM 82.4 °F - 48.2 °F 30% 29.70 in 10.0 mi SE 12.7 mph 19.6 mph N/A   Clear
11:55 PM 82.4 °F - 48.2 °F 30% 29.69 in 10.0 mi SSE 18.4 mph 24.2 mph N/A   Clear